Wind_Speed
22 23 23 24 25 26 27 27 27 26 25 24 23 22 22 22 22 22 22 23 24 24 24 24 24 24 24 24 24 23 22 22 21 21 21 22 23 24 25 27 27 28 29 30 31 32 33 33 34 36 37 37 38 39 40 41 42 43 44 45 46 47 47 49 51 53 54 55 56 57 58 59 60 61 62 62 62 63 64 64 64 64 63 60 57 58 57
22 22 23 24 25 26 25 25 24 24 23 22 21 21 21 21 21 22 22 23 23 23 23 23 24 24 24 23 23 22 21 21 21 21 22 23 24 25 26 27 28 29 30 31 32 33 34 35 36 37 37 38 39 39 40 41 42 43 44 45 46 46 47 47 49 51 53 54 55 56 57 59 60 61 63 63 63 64 65 67 67 67 67 65 61 60 61
22 22 24 24 24 24 23 23 22 21 20 20 20 20 20 20 21 22 22 23 23 23 23 23 23 23 23 22 22 21 21 21 22 22 23 24 25 26 27 28 29 30 31 32 33 34 35 36 37 37 38 39 40 40 41 41 42 43 44 45 46 47 48 48 48 50 51 52 53 55 56 58 60 62 63 64 65 65 66 67 68 68 70 70 66 63 63
22 23 23 23 22 21 21 21 20 19 19 20 20 20 20 20 21 21 22 22 23 23 23 23 22 22 22 22 21 21 21 22 22 23 24 25 27 28 28 29 30 31 32 33 34 35 36 37 37 38 39 40 41 41 42 42 43 44 45 46 46 47 49 50 50 51 53 54 55 56 58 59 60 62 63 65 66 67 67 68 69 70 71 72 72 69 66
21 21 21 20 20 20 19 19 18 19 19 19 20 20 20 20 21 21 22 22 23 23 22 22 22 22 22 21 21 22 22 23 23 24 25 27 28 29 30 30 31 32 33 34 35 36 37 38 38 39 40 40 41 42 42 43 43 45 45 46 47 48 49 51 52 53 54 56 57 58 60 61 62 63 64 66 67 68 68 69 70 71 72 73 74 74 71
20 19 19 18 18 18 18 17 17 18 19 19 19 20 20 21 21 22 22 22 22 22 22 22 22 21 21 21 22 22 23 23 25 26 27 28 29 30 30 31 32 33 34 35 36 37 38 39 40 40 40 40 41 42 43 44 44 45 46 47 48 49 50 52 54 54 54 56 58 60 61 63 64 64 65 67 68 69 70 70 72 73 73 74 75 76 76
17 17 17 17 17 16 16 16 17 18 18 19 19 20 20 21 21 21 21 22 22 22 22 22 21 21 21 22 22 23 24 25 26 27 28 29 30 31 31 32 33 34 35 36 37 38 39 40 40 40 40 40 41 42 43 44 45 46 47 48 49 49 50 52 53 54 55 57 59 60 62 63 65 66 66 67 69 71 71 71 72 74 75 75 76 77 79
16 16 16 16 16 15 15 16 17 18 18 19 19 19 20 20 20 21 21 21 21 21 21 21 21 22 22 22 23 24 25 26 27 28 29 30 31 31 32 33 34 35 36 37 37 38 39 40 41 41 41 41 41 42 43 44 45 46 47 48 49 49 50 51 53 54 55 57 59 60 62 63 65 67 67 68 70 72 73 72 73 75 76 77 78 78 79
15 15 15 15 14 14 15 16 17 17 18 18 19 19 20 20 20 21 21 21 21 21 21 21 22 22 23 23 24 25 26 27 28 29 30 31 31 32 33 34 35 36 36 37 38 39 40 41 41 41 41 41 42 42 43 44 45 46 47 48 48 49 50 51 52 54 55 57 59 61 61 63 65 66 68 69 70 72 74 74 74 75 77 78 79 80 80
14 14 14 14 14 14 15 16 17 17 18 18 19 19 20 20 20 21 21 21 21 21 21 21 22 23 23 24 25 26 27 28 29 30 31 31 32 33 33 34 35 36 37 38 38 39 40 41 42 42 42 42 42 43 43 44 45 46 47 48 48 49 50 50 51 54 56 58 60 61 62 63 65 67 68 69 70 72 75 76 75 76 78 79 80 81 82
13 13 13 13 13 14 15 16 17 17 18 18 19 19 20 20 20 20 20 21 21 21 21 22 22 23 24 25 26 27 28 29 30 30 31 32 33 33 34 34 35 36 37 37 38 39 40 41 42 42 42 43 43 44 45 46 46 47 48 49 49 50 50 51 52 54 56 59 60 62 64 64 65 67 68 70 71 73 76 78 77 77 78 80 81 82 83
12 12 12 13 13 14 15 16 17 17 17 18 19 19 20 20 20 20 20 20 20 21 21 22 23 24 25 26 27 28 29 29 30 31 31 32 32 33 33 34 34 35 36 37 38 38 40 41 42 42 43 43 44 45 46 47 48 48 49 49 50 51 52 53 53 55 57 59 60 62 64 66 66 68 69 70 72 73 75 78 79 78 79 80 81 82 84
12 12 12 12 13 14 16 16 16 17 18 18 19 19 20 20 20 20 20 20 21 21 22 22 23 25 26 27 28 29 29 30 30 31 31 32 32 33 33 33 34 34 35 36 37 38 39 41 42 43 44 45 46 47 48 48 48 49 49 50 50 51 53 54 55 56 57 59 60 62 64 67 68 70 70 71 72 72 74 77 80 79 79 80 81 83 85
11 11 12 12 13 15 16 16 16 17 18 18 19 19 20 20 20 20 20 20 21 22 23 24 25 26 27 28 29 29 30 30 31 31 31 32 32 33 33 34 34 34 35 36 37 38 39 40 42 43 45 46 47 48 48 47 47 48 48 50 51 52 53 55 56 57 58 60 61 63 64 66 68 70 71 72 73 73 74 76 79 79 79 80 81 83 85
11 12 12 12 13 15 15 16 16 17 18 18 19 20 20 19 20 20 21 21 22 23 24 25 27 28 29 29 30 30 31 31 31 32 32 32 33 33 33 34 34 34 35 35 36 37 38 39 41 43 44 45 45 45 45 45 46 47 49 50 52 53 55 57 58 60 61 62 63 64 65 67 69 71 73 74 75 75 76 76 78 79 80 81 81 82 84
11 12 12 13 14 15 15 16 16 17 18 19 19 20 20 19 20 21 22 23 24 25 26 27 28 28 29 30 30 30 31 31 32 32 33 33 33 33 34 34 34 35 35 35 36 37 39 40 42 43 44 44 43 43 43 44 46 48 50 52 54 55 57 59 61 62 63 65 68 69 69 70 72 74 75 77 78 79 79 79 79 80 80 80 81 82 83
12 12 12 13 14 15 15 16 16 17 18 19 19 20 20 20 21 22 23 24 25 26 27 27 27 28 28 29 29 30 31 32 32 33 33 34 34 34 35 35 36 36 37 37 37 38 40 42 44 45 45 45 44 43 43 44 45 48 50 53 56 58 59 61 63 65 66 67 69 72 74 74 75 77 78 79 81 83 83 83 82 81 81 82 82 83 83
12 12 12 13 14 15 15 16 16 17 18 19 19 20 20 21 22 23 24 25 26 26 26 26 26 27 27 28 29 30 31 32 33 34 34 35 35 36 36 37 38 38 39 39 39 39 41 43 45 45 45 45 45 45 44 44 46 48 51 54 57 60 61 62 65 67 68 69 70 72 75 77 78 79 81 83 84 86 87 88 87 86 85 84 84 84 85
12 12 12 13 14 15 15 16 16 17 18 19 19 20 20 21 22 23 24 24 25 26 26 26 26 27 28 28 29 30 31 33 34 35 36 36 37 37 38 39 39 40 40 41 41 41 42 44 45 45 45 44 45 47 48 48 48 50 53 56 58 61 64 65 67 70 71 72 73 73 75 78 81 82 84 86 88 89 90 91 92 90 89 88 87 87 87
13 13 13 13 15 15 15 16 16 17 18 19 19 20 21 21 22 23 23 24 25 25 26 26 27 27 28 29 30 31 33 34 35 36 37 38 38 38 39 40 40 41 42 43 43 43 44 44 45 45 45 45 45 47 50 53 54 54 56 59 61 63 66 68 70 73 75 77 78 78 78 81 84 86 87 89 90 92 93 94 94 94 93 91 90 89 89
14 13 13 14 15 16 16 16 17 17 18 19 19 20 20 21 22 23 23 24 25 25 26 27 27 28 29 30 32 33 35 36 37 38 39 40 40 40 40 41 41 42 43 44 44 45 46 46 46 46 46 47 47 48 50 53 56 58 59 61 63 65 68 71 73 76 79 81 84 85 84 84 86 88 90 92 93 94 96 96 97 96 95 93 92 91 91
14 14 14 14 16 16 17 17 17 18 18 19 20 20 21 22 22 23 24 24 25 26 26 27 28 29 30 32 33 35 36 38 39 40 41 42 42 43 43 43 43 43 44 45 46 47 48 49 49 49 49 49 49 50 51 53 56 59 61 63 65 67 70 73 75 78 81 83 85 86 87 86 87 88 90 93 95 97 98 98 98 98 97 96 94 92 92
15 15 15 15 16 17 17 18 18 18 19 20 20 20 21 22 23 24 25 25 26 27 27 28 29 31 32 34 35 36 38 39 41 42 43 43 44 45 45 46 46 46 46 46 47 48 49 51 52 52 53 52 52 53 53 55 57 60 61 64 66 68 70 74 75 76 78 81 84 86 88 88 88 89 91 93 96 98 99 100 101 100 99 98 96 94 93
16 16 16 16 17 18 19 19 19 19 20 20 21 22 22 23 24 25 26 27 28 28 29 30 32 33 35 36 37 38 40 41 42 43 44 45 46 47 48 48 48 49 49 49 49 49 50 51 53 55 56 57 57 57 57 57 59 61 63 65 67 68 70 74 76 77 78 80 82 85 88 89 89 90 92 94 97 100 101 103 103 102 101 100 97 95 94
16 17 17 17 17 19 20 20 21 20 21 21 22 23 24 24 25 26 27 29 30 31 32 33 34 35 37 38 39 41 42 44 45 46 47 48 49 49 50 50 51 51 51 52 52 52 52 52 54 55 57 59 60 61 62 62 62 64 66 67 69 70 71 73 76 78 80 80 82 84 87 90 91 92 93 95 98 101 103 104 104 104 102 101 99 96 95
18 18 19 19 19 20 21 22 22 22 22 23 24 25 25 26 27 28 29 31 32 33 34 35 37 38 39 40 41 43 44 46 47 48 50 51 52 52 52 53 53 54 54 54 55 55 55 54 55 56 58 59 61 62 64 66 66 66 68 70 71 72 73 73 75 78 80 81 82 83 85 88 91 93 94 96 98 101 103 105 105 104 103 101 99 97 96
19 19 20 20 20 21 21 23 23 24 24 25 26 26 27 28 29 30 32 33 34 35 36 37 39 40 41 42 43 45 46 47 49 50 52 53 54 55 55 55 55 56 56 57 57 58 58 58 58 58 59 60 62 63 64 67 68 68 70 72 73 74 75 75 76 78 80 82 85 86 86 87 90 93 95 97 99 102 104 105 106 105 104 102 100 97 96
20 21 21 22 22 22 23 23 25 26 26 27 28 29 29 30 31 32 34 35 36 38 39 39 40 42 43 44 45 46 48 49 51 52 54 55 56 57 58 58 58 58 58 59 60 60 60 61 61 61 61 62 63 64 65 67 70 70 71 73 75 76 77 77 78 80 82 84 87 89 90 90 92 94 96 98 101 103 105 106 106 105 104 102 100 98 96
22 22 23 23 24 24 24 25 26 27 28 29 30 31 32 32 33 35 36 37 38 40 41 42 43 44 45 46 47 48 50 51 53 54 55 56 57 59 59 60 60 60 60 61 62 62 63 64 64 64 64 65 65 66 66 67 70 72 72 74 76 78 80 81 81 82 83 85 88 90 92 93 94 96 99 101 103 105 106 107 106 106 104 103 100 98 97
23 24 24 25 25 26 26 27 27 28 29 30 31 32 33 34 36 37 38 39 41 42 43 45 46 46 47 48 49 50 51 52 54 55 57 58 59 60 60 61 62 62 62 63 64 64 65 66 66 67 67 68 69 69 68 67 69 72 73 74 77 79 81 83 84 85 85 86 88 91 94 95 96 98 101 104 105 106 107 107 107 106 105 103 100 98 97
24 25 26 26 27 27 28 29 29 29 30 31 33 34 35 36 38 39 40 42 43 44 45 47 48 49 50 51 52 53 53 54 55 56 57 59 60 61 62 62 63 64 64 64 65 66 67 68 68 69 69 70 71 72 72 71 70 71 73 75 77 80 82 84 86 88 88 88 88 91 94 97 99 101 103 105 107 107 108 107 106 105 104 102 100 98 97
25 26 27 28 29 29 29 30 31 31 32 33 34 35 36 38 39 41 42 44 45 46 47 48 49 50 51 52 53 54 55 56 56 57 58 59 61 63 64 64 65 66 66 66 66 67 69 70 70 71 71 71 72 74 75 74 73 73 74 75 78 80 82 84 86 89 91 91 91 92 95 98 101 103 105 106 107 107 107 107 106 105 104 102 99 98 97
26 27 28 29 30 31 31 31 32 33 34 34 35 36 38 39 40 42 43 45 46 47 48 49 51 51 52 53 54 55 56 57 58 59 60 61 62 63 65 66 67 68 69 69 68 69 70 71 72 72 73 73 73 74 75 76 76 75 76 77 78 80 82 84 87 90 92 94 95 96 98 100 103 105 106 107 107 107 107 106 105 104 103 101 99 97 97
28 29 29 30 31 32 32 33 34 34 35 36 37 38 39 40 41 43 44 45 47 48 49 50 51 53 54 54 55 56 57 58 58 59 60 61 62 63 65 66 68 69 70 70 70 70 71 72 73 73 74 74 74 74 75 77 77 77 78 79 80 81 82 84 87 90 93 95 97 99 101 103 105 106 107 107 107 107 106 105 104 103 102 100 98 97 98
31 31 31 31 32 33 34 35 35 36 37 38 38 39 40 41 42 44 45 46 47 49 50 51 52 53 54 55 56 57 57 58 58 59 60 61 62 63 64 65 67 68 70 71 71 71 72 73 73 74 74 74 75 75 76 77 78 79 80 82 83 84 84 85 87 89 93 96 99 101 103 104 106 106 107 107 107 106 105 104 103 102 100 98 98 97 98
34 34 34 34 34 35 36 37 38 38 39 39 40 40 41 41 43 44 46 47 48 48 50 51 52 53 54 54 55 56 57 57 58 59 60 61 62 63 64 64 65 67 69 70 70 70 71 72 73 74 74 74 75 76 77 78 80 80 82 83 85 86 88 89 89 90 93 97 100 102 104 105 106 107 107 107 107 105 104 103 102 101 99 97 97 98 99
37 37 37 37 37 38 38 39 40 40 41 41 42 42 42 43 44 45 47 48 49 50 50 52 53 53 54 55 55 55 56 57 58 59 60 61 62 63 64 64 64 65 67 68 68 69 70 71 72 73 74 75 75 77 79 81 82 83 83 85 87 89 90 93 94 95 96 99 101 103 104 104 105 106 106 106 105 104 103 102 101 99 98 97 97 98 100
39 39 40 40 40 40 41 42 42 43 43 43 44 44 44 44 45 46 47 49 50 51 52 53 54 54 55 56 57 57 57 58 59 60 61 62 62 63 64 64 64 64 66 67 67 68 69 70 72 73 74 75 77 78 80 82 84 86 87 88 89 91 93 96 98 99 100 102 103 103 104 104 104 104 104 104 103 103 102 101 100 98 97 97 98 99 101
40 41 42 42 43 43 43 44 44 45 45 46 46 46 46 46 46 48 49 50 51 52 53 53 55 55 56 57 58 59 59 59 60 61 63 64 64 64 64 65 65 65 66 68 68 68 69 71 73 74 75 77 79 80 82 84 86 88 90 91 92 94 96 99 101 103 104 105 106 106 106 105 105 104 103 102 102 101 101 99 98 97 97 97 98 100 102
42 43 44 45 45 45 46 46 46 47 47 48 48 49 49 48 48 49 50 51 53 54 54 54 56 57 57 58 59 60 61 61 61 62 63 64 65 65 66 66 67 67 68 69 70 71 72 73 75 76 77 79 81 83 84 86 88 90 93 95 96 98 99 101 103 105 105 106 107 108 107 107 106 105 104 102 101 100 99 98 97 97 97 98 99 101 103
44 44 45 46 47 48 48 48 48 49 50 50 51 51 51 51 50 50 51 52 54 55 56 56 56 58 59 59 60 61 62 62 62 62 63 64 65 66 67 68 69 70 71 72 73 74 75 76 78 79 81 82 83 85 86 88 90 92 95 97 99 100 101 103 104 106 106 106 107 107 107 107 106 105 103 102 101 100 98 97 97 97 98 99 100 102 104
45 45 46 48 49 50 50 50 50 51 52 52 53 54 54 53 52 53 53 54 55 56 57 58 58 59 59 60 61 62 63 64 64 64 64 65 67 67 68 69 71 72 73 75 76 78 78 79 80 82 84 85 86 88 89 91 92 94 97 99 100 101 102 103 104 105 106 106 106 106 106 105 105 103 102 101 100 99 98 97 97 97 98 100 101 103 106
46 47 49 50 51 51 51 52 53 54 54 54 55 56 56 56 55 55 55 56 57 58 59 60 60 61 61 62 62 63 64 65 67 67 67 68 69 70 71 72 73 75 76 77 79 80 81 82 83 85 86 88 89 91 92 94 95 97 99 101 103 103 104 105 105 105 106 106 106 106 105 104 103 102 101 100 99 97 97 97 98 98 100 102 103 105 107
47 49 51 52 52 52 52 54 55 56 56 57 57 57 58 58 57 57 57 58 60 61 62 62 63 63 63 63 64 65 66 67 68 69 70 70 72 73 74 75 76 78 79 80 82 84 85 85 86 88 89 90 92 94 95 97 98 99 100 102 104 104 105 105 105 105 106 106 106 105 103 102 101 101 100 99 98 97 97 97 99 100 102 103 105 107 109
49 51 52 54 54 54 54 55 56 57 58 58 59 59 59 59 59 59 59 60 61 62 63 64 65 65 66 66 66 67 69 70 71 71 73 73 74 75 77 78 80 81 82 83 85 87 88 89 90 91 93 94 95 97 98 100 101 101 102 103 104 104 104 105 105 105 105 105 104 103 102 101 100 100 99 98 97 97 97 98 100 101 103 105 107 109 110
51 53 54 55 56 56 55 56 58 59 60 60 61 61 61 61 61 62 62 62 63 64 65 66 67 67 68 68 69 70 72 73 73 74 75 76 77 78 79 81 83 85 85 86 88 90 91 92 94 95 96 97 98 100 101 102 103 104 104 104 104 104 104 104 105 105 104 103 102 101 101 100 99 99 98 97 97 98 98 100 101 103 105 107 109 110 112
53 55 56 56 57 57 56 57 59 60 61 62 62 63 63 63 64 65 65 65 65 66 67 68 68 68 69 70 71 72 74 75 75 76 79 80 80 81 82 84 86 88 89 90 92 93 95 96 97 98 99 100 101 101 102 104 105 105 105 104 104 104 104 104 104 104 102 102 101 101 100 100 99 98 97 97 98 99 100 101 103 105 107 109 111 112 113
55 57 58 58 58 57 57 59 61 62 63 63 64 65 65 66 66 67 67 67 68 69 69 70 70 70 71 72 73 74 76 77 78 79 81 83 83 84 85 87 88 90 92 93 95 96 97 98 99 100 101 102 103 103 104 105 105 104 104 104 104 104 104 103 103 102 101 101 101 100 100 99 98 98 97 97 99 100 101 103 104 106 109 111 112 113 113
57 58 59 59 59 58 58 59 61 63 65 66 66 66 67 68 69 69 69 69 70 71 72 72 73 73 73 74 75 76 78 79 80 82 84 85 86 87 88 89 91 92 94 96 98 99 100 101 101 101 102 104 105 105 105 105 104 104 104 104 104 104 103 102 102 101 101 101 100 100 100 99 98 98 98 98 100 101 102 104 106 108 110 112 114 114 113
58 59 61 61 60 60 60 61 62 64 66 68 68 68 68 69 70 71 71 71 72 73 74 75 75 76 77 78 79 79 80 81 82 84 86 87 88 88 90 91 93 94 96 98 100 101 102 103 103 103 103 104 105 104 104 104 104 104 104 104 104 103 102 101 101 101 101 101 100 100 99 99 98 98 99 100 101 102 104 105 108 110 112 113 114 114 113
60 61 62 62 62 62 62 63 64 66 67 69 70 70 70 71 72 73 73 74 74 75 76 77 78 79 80 80 81 82 82 82 84 85 87 89 90 90 91 93 94 96 98 99 101 103 104 105 105 104 104 103 103 103 103 104 105 105 104 103 103 102 101 101 101 101 101 100 100 99 99 98 99 99 100 101 102 104 105 107 109 111 113 114 114 114 112
62 62 62 63 64 64 65 66 67 68 69 70 71 72 72 73 74 75 75 75 76 77 77 78 79 81 82 83 84 85 85 85 85 87 89 91 92 93 93 94 96 98 99 100 102 104 105 106 105 104 103 102 102 102 103 104 104 104 103 102 101 101 101 100 100 100 99 99 99 98 98 98 99 100 101 102 103 105 107 109 111 113 114 114 114 113 111
Wind_Direction
287 293 301 308 312 313 313 312 311 311 312 313 316 320 322 323 325 328 332 336 336 336 335 336 338 338 337 338 339 339 340 344 347 348 348 347 348 351 353 356 356 356 356 356 356 356 356 357 357 358 359 359 359 360 0 1 2 2 3 3 3 4 5 4 3 3 4 5 5 4 4 4 3 3 4 5 6 5 4 3 2 359 356 354 351 344 341
292 300 307 311 312 311 310 310 310 312 313 316 320 322 324 326 330 333 336 337 336 335 335 337 338 338 338 339 341 343 346 350 350 350 350 351 353 355 356 357 357 357 356 356 356 356 356 357 358 358 358 358 358 358 358 358 359 360 0 1 1 1 2 4 3 2 2 3 3 2 2 2 2 2 2 3 4 5 4 3 3 2 358 356 356 351 345
299 305 308 309 308 308 309 310 311 312 315 319 322 323 325 329 333 336 337 336 334 334 336 337 337 337 339 342 345 347 350 352 352 352 353 354 356 356 357 357 356 356 356 355 355 356 356 356 356 356 356 356 356 356 356 357 357 357 358 358 358 358 358 360 1 1 0 2 2 1 1 1 0 0 0 1 2 4 4 2 2 2 1 358 358 356 350
302 305 305 304 305 307 309 310 312 315 319 322 323 325 329 333 336 337 336 334 335 335 335 335 336 338 342 345 347 350 352 353 353 354 355 355 355 355 355 355 354 354 354 354 354 354 353 354 354 354 354 353 354 354 354 355 355 355 356 356 356 356 355 356 358 359 358 358 360 359 359 359 359 359 359 359 0 2 3 2 1 2 2 0 359 358 356
300 302 302 303 306 308 310 312 316 320 323 324 326 329 333 335 337 336 335 335 335 334 333 334 337 340 344 346 349 352 352 353 354 353 353 353 353 353 352 352 352 352 352 352 351 351 351 350 350 350 350 350 350 350 351 352 353 353 353 354 354 354 353 352 354 356 356 356 357 357 357 357 358 357 358 357 358 360 1 1 0 1 2 1 360 359 358
299 300 302 305 308 310 313 318 322 323 324 326 329 333 335 337 337 335 335 336 334 333 334 336 339 342 344 347 350 352 352 353 352 351 351 351 351 351 350 351 351 350 351 350 350 349 348 348 348 347 346 346 346 347 347 348 350 350 350 351 352 352 351 350 350 352 353 353 354 355 355 355 356 356 356 356 356 358 360 0 359 359 360 1 0 360 359
299 301 304 308 310 314 319 323 324 325 326 328 331 335 337 337 336 335 336 335 334 335 337 338 340 342 344 347 350 351 351 351 351 350 350 350 350 350 350 350 350 350 349 350 349 349 349 348 348 347 345 345 344 344 345 345 346 347 347 348 349 350 350 349 348 349 351 351 352 353 353 353 354 354 354 355 354 354 358 359 358 358 358 359 360 360 360
301 304 308 311 315 320 325 327 327 327 327 329 333 336 337 336 336 337 337 335 335 337 338 339 340 342 344 347 350 350 350 350 350 350 350 350 350 350 350 350 350 350 349 350 350 349 349 349 349 349 348 347 346 345 345 344 345 346 345 346 347 348 348 349 347 348 349 350 350 351 352 352 352 352 353 353 353 352 354 357 357 356 357 358 358 359 359
303 308 311 315 320 326 329 329 327 326 328 331 334 336 336 337 338 338 337 336 338 339 339 340 341 343 345 348 349 349 349 349 349 350 350 350 349 350 350 350 350 349 349 349 349 349 349 349 350 350 351 350 349 348 347 346 346 346 345 345 347 348 349 350 349 348 348 349 349 350 351 351 350 351 351 352 352 350 351 355 356 355 356 356 357 358 358
307 311 314 320 327 330 330 327 324 325 329 333 335 336 338 339 340 339 338 339 341 341 341 342 343 345 347 348 348 348 348 348 348 348 348 348 347 348 348 349 349 349 349 349 349 348 349 349 350 351 352 351 351 350 349 348 348 347 347 347 348 350 350 351 351 349 348 349 349 349 350 351 350 350 350 350 351 349 348 351 354 354 354 355 355 356 356
310 313 319 327 331 332 328 324 323 327 331 335 336 338 340 341 340 339 341 343 342 341 343 345 346 348 349 349 348 348 347 347 347 346 346 345 345 345 346 347 347 348 348 348 348 348 349 349 350 351 352 352 351 350 350 349 349 349 349 349 350 352 352 353 353 352 350 350 350 349 349 350 350 350 350 349 350 349 347 348 352 353 352 353 354 354 355
313 317 325 331 332 330 324 322 325 330 334 336 339 341 341 341 340 342 344 344 343 344 346 348 349 351 352 351 350 349 348 348 347 346 345 345 345 345 346 346 346 347 347 347 348 348 349 350 350 351 351 351 350 350 350 349 350 350 351 352 353 354 355 355 355 354 352 351 352 351 350 351 351 351 351 350 350 350 347 346 349 351 351 351 352 352 353
316 322 329 332 330 326 322 323 328 333 336 339 341 342 341 340 342 344 345 344 345 347 349 350 353 354 354 353 352 351 350 349 348 347 347 346 347 347 347 347 347 347 347 347 348 348 350 350 351 351 351 351 350 350 350 351 352 353 354 355 356 357 357 357 356 357 355 354 355 356 355 355 355 354 354 353 352 352 350 347 347 349 349 349 350 351 351
319 326 330 331 327 323 321 325 331 336 339 341 341 341 339 340 343 345 344 345 348 350 351 354 356 356 355 354 352 352 351 350 349 349 349 349 349 349 349 349 349 349 349 349 349 349 350 351 351 351 351 351 351 351 352 354 355 356 357 357 358 358 358 358 358 358 358 358 358 359 358 357 357 356 356 355 354 354 353 350 348 349 349 348 349 350 350
323 328 329 328 324 320 322 328 334 337 340 341 341 340 338 340 344 345 345 348 351 352 354 356 357 356 355 354 353 352 352 351 350 350 350 351 351 351 351 351 350 351 350 350 350 350 350 351 351 350 350 350 351 353 355 356 356 357 358 357 357 357 357 357 357 357 357 357 357 357 358 357 357 357 357 356 355 355 354 352 350 350 349 348 348 348 349
325 327 327 325 321 320 323 330 334 337 339 341 340 338 337 342 346 346 348 352 353 354 355 356 355 354 354 353 352 352 351 351 351 351 351 352 352 352 352 352 352 352 351 351 351 350 350 350 350 350 350 350 352 354 356 356 355 356 356 355 354 354 354 354 354 355 355 356 356 355 356 357 357 356 356 356 355 355 355 354 352 351 350 349 348 348 348
324 324 324 322 319 319 324 330 334 337 339 339 339 338 340 344 347 348 350 353 353 354 354 353 353 352 352 352 352 352 352 352 352 352 352 353 353 352 353 353 353 352 352 352 352 352 351 351 350 350 350 350 351 353 354 355 354 352 353 352 351 351 352 352 352 352 354 355 355 355 354 355 356 356 355 355 355 355 354 353 353 352 351 349 348 348 347
321 320 321 319 317 318 324 329 333 336 337 338 338 340 342 347 349 350 351 352 352 351 351 350 350 349 349 350 351 351 353 353 353 353 353 353 353 353 353 353 353 352 352 351 352 352 351 351 350 350 350 349 349 349 350 351 350 349 349 350 349 349 349 350 351 351 351 352 354 354 353 353 354 354 355 355 355 355 354 353 352 352 351 350 349 348 348
317 318 318 318 316 318 322 327 331 333 335 336 339 341 345 348 349 348 349 349 349 348 348 347 347 347 347 348 349 351 352 353 354 354 354 354 353 353 352 352 352 351 351 351 350 350 350 350 350 349 348 348 347 345 345 346 347 346 346 347 347 347 348 349 349 349 349 350 351 352 353 352 352 353 354 354 354 354 354 353 352 351 351 350 349 348 348
314 316 317 317 315 315 319 324 328 331 333 335 338 343 347 346 345 345 346 346 346 346 345 345 346 346 346 348 349 350 352 353 354 354 354 354 353 352 352 351 351 350 350 349 349 348 348 348 348 347 346 345 344 344 343 342 343 345 344 345 346 346 346 347 348 348 348 349 349 350 352 352 352 352 353 353 353 353 353 352 351 351 350 350 349 348 348
312 313 316 315 313 313 316 320 324 327 330 333 338 343 344 342 341 342 343 343 344 344 343 344 344 345 346 348 349 350 351 352 353 353 353 353 352 352 351 350 349 349 348 347 347 346 346 346 346 345 344 343 342 342 342 341 341 342 343 343 344 345 345 345 347 347 347 348 348 348 350 351 351 351 351 351 352 352 352 352 351 350 350 349 348 348 347
311 311 314 314 312 311 313 316 320 324 326 330 337 340 339 338 338 339 340 341 342 342 342 342 343 344 346 348 349 350 351 352 351 351 351 351 350 350 350 349 349 348 347 346 345 344 344 344 344 344 343 341 340 340 340 341 340 340 341 342 343 344 344 344 346 347 346 347 347 346 347 348 349 349 350 350 350 350 351 350 350 350 349 349 348 347 347
309 310 312 313 312 310 311 312 316 320 324 330 334 334 334 334 335 336 337 338 339 339 340 340 342 343 345 347 348 349 350 350 350 349 349 349 348 348 348 348 348 347 346 345 344 343 342 342 342 341 341 340 339 338 338 339 339 339 340 341 341 343 343 343 343 345 345 345 345 345 345 346 347 348 348 349 348 349 349 349 349 349 349 348 348 347 346
310 309 311 313 312 311 310 311 314 318 323 326 327 327 329 331 332 333 333 333 334 337 338 339 341 343 344 345 346 346 347 347 347 347 347 347 346 346 346 346 346 346 345 344 343 342 341 341 340 340 340 339 339 338 337 338 338 338 338 340 340 341 342 341 341 342 344 344 344 344 343 344 345 346 347 348 347 347 348 348 348 348 348 348 347 346 345
310 310 310 312 313 313 311 311 313 315 318 320 321 323 325 327 328 329 329 329 330 333 335 337 339 340 341 342 343 343 344 344 344 344 344 344 344 343 343 343 343 343 343 343 342 341 340 340 339 338 338 338 338 337 337 337 338 338 337 338 339 339 340 341 340 340 342 342 343 343 343 343 344 345 346 346 346 346 347 347 347 347 347 347 346 345 345
308 310 311 312 313 313 313 312 312 312 313 315 317 319 321 322 323 324 325 326 327 329 331 334 335 336 337 339 339 340 341 341 341 342 342 341 341 341 341 341 341 341 341 341 341 340 340 339 338 337 336 336 336 336 336 336 337 337 337 337 337 338 339 340 339 339 340 340 341 342 343 343 343 344 345 345 345 345 345 346 346 346 346 346 345 345 344
305 309 311 312 312 313 313 313 312 312 312 313 314 315 317 318 319 321 322 323 324 326 328 329 331 332 334 335 336 336 337 337 338 339 339 339 338 338 338 338 339 339 339 339 339 339 338 338 338 337 336 335 335 336 335 335 335 336 336 335 336 336 337 338 338 338 339 339 339 340 342 343 343 343 344 344 344 344 344 345 344 344 345 345 345 344 344
301 306 309 311 311 312 312 313 313 313 313 313 313 313 314 315 316 317 318 319 320 322 324 325 327 328 330 331 332 333 333 334 335 336 336 336 336 335 335 335 336 336 337 337 336 337 337 337 337 337 336 335 335 335 335 335 334 335 336 335 335 335 335 336 337 338 339 339 339 339 341 342 343 343 343 343 343 343 343 343 343 343 344 344 344 344 343
298 302 306 309 311 310 311 312 313 314 314 314 313 312 312 313 314 314 315 316 317 319 320 322 324 325 327 328 329 330 330 331 332 333 333 333 333 333 333 333 333 334 335 335 335 335 335 335 336 336 336 335 335 334 335 335 334 334 335 336 335 335 335 335 336 337 338 339 339 339 340 341 342 342 342 342 343 343 342 342 343 343 343 343 343 343 343
296 300 303 306 308 309 310 310 311 313 315 314 314 313 312 312 312 313 313 314 315 316 318 320 321 323 324 325 326 327 327 328 329 330 330 330 330 330 330 331 331 332 333 333 333 333 333 333 334 335 335 335 335 334 334 335 334 334 335 335 335 335 335 335 336 336 337 338 339 339 339 340 341 342 342 341 342 342 342 342 342 342 342 342 343 342 342
295 299 301 303 306 308 309 309 310 311 313 314 314 313 312 312 312 312 313 313 314 315 316 317 319 320 321 322 323 324 324 325 326 327 327 328 328 328 328 329 329 330 331 332 332 332 332 332 333 334 334 334 334 334 333 334 335 334 335 335 335 335 335 335 335 335 336 337 339 339 339 339 340 341 341 341 341 341 341 341 341 341 341 342 342 342 342
295 298 300 302 304 306 307 308 309 310 311 312 313 314 314 314 314 314 314 314 314 315 315 316 317 318 319 319 320 321 322 323 324 325 326 326 326 327 327 328 328 328 329 330 331 331 330 331 331 332 333 333 334 333 333 333 334 334 335 335 335 335 335 335 335 335 335 336 338 339 339 339 339 340 340 340 340 340 340 340 340 341 341 341 341 341 341
297 299 300 300 302 305 307 308 308 309 309 310 311 313 315 315 316 316 316 316 315 315 315 316 316 316 317 318 319 320 321 322 323 324 325 325 325 326 326 326 327 327 328 329 330 330 330 330 330 331 332 332 333 333 332 332 333 334 334 334 334 334 335 335 335 335 335 336 337 338 339 339 339 339 339 339 339 339 339 339 340 340 340 341 341 341 340
297 301 302 301 301 303 305 307 308 309 308 309 310 311 313 315 316 317 317 317 317 316 316 316 317 317 317 318 319 320 320 321 322 323 323 323 324 324 324 325 326 326 326 327 329 329 329 329 330 330 331 331 332 332 331 331 332 333 333 333 334 334 335 335 336 335 335 335 336 337 338 338 338 338 338 338 338 338 338 339 339 340 340 340 340 340 340
297 301 304 304 303 303 304 306 308 309 308 308 308 309 311 314 315 317 317 317 317 317 317 317 317 317 318 318 319 320 320 321 321 321 322 322 322 323 323 324 325 325 325 326 328 328 328 328 329 329 330 330 331 331 331 331 331 332 333 333 333 334 334 335 335 335 335 334 335 336 337 337 337 337 337 337 337 338 338 338 339 339 339 339 339 339 339
295 299 302 305 305 305 305 305 307 308 309 308 307 307 309 311 314 315 316 317 317 317 317 317 317 318 318 318 319 319 319 320 320 321 321 321 321 322 323 324 325 325 325 325 327 327 328 327 328 328 329 330 330 330 330 330 331 332 332 333 333 333 333 333 334 335 334 334 335 336 336 336 336 336 337 337 337 337 338 338 338 339 339 339 339 339 339
293 296 300 304 305 305 305 305 306 307 308 308 307 306 307 309 311 313 314 315 316 317 317 317 318 318 318 318 318 319 319 320 320 320 320 320 321 322 323 324 325 325 324 325 326 327 327 327 327 328 329 329 330 330 330 330 331 331 332 332 332 332 332 332 333 334 334 334 334 335 336 336 336 336 336 337 337 337 337 338 338 338 338 339 339 339 339
290 294 298 301 303 305 305 305 305 306 307 307 307 307 306 307 309 310 312 313 315 316 317 317 317 318 318 318 318 319 319 320 320 320 320 321 322 323 323 324 325 325 324 324 325 326 326 327 327 328 329 330 330 330 330 330 330 331 331 331 331 332 332 332 332 333 334 334 334 335 335 335 335 336 336 336 336 336 337 337 337 338 338 338 339 339 338
289 292 296 299 301 303 304 304 304 305 305 307 308 307 306 306 307 308 310 311 312 314 315 316 317 317 318 318 319 319 320 321 321 322 322 322 323 324 324 324 325 325 324 325 325 326 327 327 327 328 329 329 329 329 329 330 330 330 330 330 331 331 332 332 332 333 334 334 334 334 334 335 335 336 336 336 336 336 337 337 337 337 338 338 338 338 337
287 290 293 297 300 302 303 303 304 304 305 306 307 307 306 305 305 306 308 309 310 312 313 315 315 316 317 318 319 319 320 321 322 322 322 322 323 324 325 325 325 325 325 325 325 326 326 327 327 328 328 329 329 329 329 329 329 329 329 329 330 331 331 332 332 333 333 334 334 334 334 335 335 335 336 336 336 337 337 337 337 337 338 338 338 337 337
286 289 292 295 298 301 302 303 303 303 304 304 305 306 306 305 303 303 305 306 308 309 310 312 314 315 316 317 318 319 319 320 321 322 322 322 323 324 324 324 324 324 324 324 325 325 326 326 327 327 327 328 328 328 328 328 328 328 328 329 330 330 331 332 332 332 333 334 334 334 334 335 335 335 335 336 336 336 336 336 337 337 337 337 337 337 336
285 288 291 293 296 299 301 301 300 301 302 303 304 305 306 305 303 302 303 304 305 306 308 309 311 312 313 315 316 317 318 319 320 320 321 321 321 322 322 322 322 323 323 324 324 324 324 325 326 326 326 327 326 326 326 327 327 328 328 328 329 330 331 331 332 332 333 333 333 334 334 334 334 334 335 336 336 336 336 336 336 336 336 336 336 336 336
285 288 290 292 295 298 299 298 298 299 301 302 303 304 305 305 303 302 302 302 303 304 306 307 308 310 311 313 314 316 316 317 318 318 319 319 319 320 320 320 321 321 322 322 323 323 323 324 325 325 325 325 325 325 326 326 327 327 328 328 329 330 331 331 332 332 333 333 333 333 334 334 334 334 335 335 335 335 336 336 336 336 336 336 336 336 336
285 287 289 291 294 295 296 296 297 298 300 301 302 303 303 304 303 302 301 301 302 303 304 305 306 308 309 311 313 314 314 315 315 316 317 317 317 318 319 319 319 320 321 321 321 322 322 323 324 324 324 324 324 325 326 326 327 327 328 329 329 330 331 331 332 332 332 332 333 333 333 333 334 334 334 335 335 335 335 335 335 335 335 335 335 336 336
284 286 288 290 292 293 293 294 295 297 298 300 301 302 302 302 301 300 299 299 300 301 302 303 305 307 308 310 311 312 312 312 313 314 314 315 316 317 318 318 318 319 320 321 320 320 321 322 323 323 323 324 324 325 326 326 327 328 329 329 329 330 331 331 332 332 332 332 332 332 332 333 333 334 334 334 335 335 335 335 335 335 335 335 335 335 336
283 284 287 289 290 291 291 293 294 295 297 298 300 301 301 301 301 300 299 298 298 299 301 302 304 306 307 308 310 310 310 310 312 313 313 314 315 316 317 317 318 318 319 320 320 320 321 322 322 323 323 324 324 325 326 326 327 328 329 329 329 330 331 331 331 331 331 331 331 332 332 333 333 334 334 334 334 334 334 334 334 334 334 334 335 335 336
283 284 286 288 289 289 290 292 293 294 295 297 299 300 300 300 300 300 300 299 299 300 301 302 303 305 306 307 308 309 309 309 311 312 313 313 314 316 316 317 317 318 318 319 319 320 320 321 322 322 323 323 324 325 326 326 327 328 328 329 330 330 331 331 331 330 330 331 331 332 332 333 333 333 334 334 334 334 334 334 334 334 334 334 334 335 337
282 284 286 287 287 287 289 291 292 293 295 296 298 299 299 300 301 301 301 300 300 300 301 302 303 304 305 306 307 307 308 309 311 312 312 312 314 315 316 316 317 317 318 318 319 319 320 320 321 322 323 323 324 325 326 326 327 328 328 329 330 330 330 330 330 330 330 331 331 332 332 333 333 333 333 333 333 333 333 334 334 334 334 334 335 336 337
282 284 286 285 285 286 287 289 291 292 294 295 297 298 300 300 301 302 302 302 301 301 302 302 303 305 305 306 306 307 308 309 310 311 311 312 313 314 315 315 316 317 318 318 318 319 320 320 321 322 323 323 324 325 326 326 327 328 328 329 329 329 329 329 329 329 330 331 331 332 332 332 332 333 333 333 333 333 333 333 333 333 333 334 335 336 337
283 284 285 284 284 285 286 288 289 291 293 295 297 299 300 301 302 302 303 303 302 302 302 303 304 305 305 305 306 307 308 309 310 310 310 312 313 314 314 315 316 317 317 317 318 319 319 320 321 322 323 324 324 325 326 326 327 327 328 328 328 328 329 329 329 330 330 331 331 331 331 332 332 332 332 332 332 332 333 333 333 333 333 334 335 336 337
282 283 284 284 284 285 286 288 289 291 293 295 297 299 300 301 302 303 303 303 303 303 303 303 303 304 304 304 305 306 307 308 309 310 310 311 312 313 314 315 316 316 317 317 318 319 319 320 321 322 323 323 324 325 326 326 326 327 327 327 328 328 328 329 329 330 330 331 331 331 331 331 331 331 331 331 332 332 332 332 332 333 334 334 335 336 337
282 283 284 284 285 286 288 289 290 292 293 295 297 298 299 300 301 302 303 303 303 303 303 303 303 303 303 304 305 306 307 308 309 310 310 311 312 313 314 315 316 316 317 317 318 318 319 319 320 322 323 324 324 325 326 326 326 326 326 327 327 327 328 328 329 329 330 330 330 330 330 330 330 330 331 331 331 331 332 332 332 333 334 335 335 336 336
Height
10649 10648 10647 10646 10645 10644 10642 10640 10638 10636 10634 10632 10630 10627 10625 10623 10621 10618 10616 10613 10611 10608 10606 10604 10601 10599 10596 10593 10591 10588 10585 10582 10580 10577 10575 10572 10569 10566 10562 10559 10556 10553 10550 10547 10543 10540 10536 10533 10529 10524 10520 10516 10512 10508 10503 10499 10494 10489 10484 10479 10474 10469 10464 10458 10451 10444 10439 10433 10428 10422 10416 10411 10404 10398 10392 10387 10381 10373 10365 10357 10350 10341 10334 10329 10322 10312 10305
10647 10647 10646 10644 10643 10642 10640 10638 10636 10634 10632 10630 10628 10626 10624 10621 10619 10616 10614 10612 10609 10607 10605 10602 10600 10597 10595 10592 10590 10587 10584 10581 10578 10576 10573 10570 10567 10564 10561 10558 10555 10552 10548 10545 10542 10538 10534 10530 10526 10522 10518 10514 10510 10506 10501 10497 10492 10487 10482 10477 10472 10468 10463 10459 10453 10446 10439 10433 10427 10421 10415 10409 10403 10396 10390 10383 10377 10371 10362 10354 10347 10339 10330 10324 10319 10309 10299
10646 10645 10644 10643 10641 10640 10638 10636 10634 10632 10630 10628 10626 10624 10622 10620 10617 10615 10613 10610 10608 10606 10603 10601 10599 10596 10594 10591 10588 10585 10583 10580 10577 10574 10572 10569 10566 10563 10559 10556 10553 10550 10547 10543 10540 10536 10532 10529 10525 10521 10516 10512 10508 10504 10499 10495 10490 10485 10480 10475 10470 10465 10460 10456 10451 10446 10440 10435 10429 10423 10416 10409 10401 10394 10387 10380 10374 10367 10360 10352 10344 10337 10328 10319 10314 10308 10297
10645 10644 10643 10641 10640 10638 10637 10635 10633 10630 10628 10626 10624 10622 10620 10618 10616 10613 10611 10609 10607 10604 10602 10600 10598 10595 10592 10590 10587 10584 10581 10579 10576 10573 10570 10567 10564 10561 10558 10555 10552 10548 10545 10542 10538 10534 10531 10527 10523 10519 10515 10510 10506 10501 10497 10492 10488 10483 10478 10473 10467 10462 10456 10451 10447 10442 10435 10430 10425 10419 10412 10406 10399 10391 10384 10377 10370 10363 10357 10350 10342 10334 10326 10316 10308 10303 10296
10644 10642 10641 10640 10638 10637 10635 10633 10631 10628 10627 10625 10623 10620 10618 10616 10614 10612 10610 10607 10605 10603 10601 10599 10596 10594 10591 10588 10586 10583 10580 10577 10574 10572 10569 10566 10562 10559 10556 10553 10550 10547 10543 10539 10536 10532 10528 10525 10521 10517 10512 10508 10504 10499 10495 10490 10486 10481 10476 10471 10465 10459 10453 10447 10442 10437 10432 10425 10420 10413 10407 10401 10395 10387 10380 10372 10366 10359 10353 10346 10338 10330 10323 10315 10304 10296 10290
10642 10641 10640 10638 10637 10635 10633 10631 10629 10627 10625 10623 10621 10619 10617 10614 10612 10610 10608 10606 10604 10602 10600 10597 10595 10592 10590 10587 10584 10581 10579 10576 10573 10570 10567 10564 10561 10558 10555 10551 10548 10545 10541 10538 10534 10530 10526 10522 10518 10515 10510 10506 10502 10497 10492 10488 10483 10478 10473 10468 10463 10457 10451 10444 10437 10432 10428 10421 10415 10409 10402 10396 10389 10383 10375 10368 10361 10355 10349 10341 10334 10326 10319 10312 10303 10292 10284
10640 10639 10638 10636 10635 10633 10631 10629 10627 10625 10623 10621 10619 10617 10615 10613 10611 10609 10607 10605 10603 10600 10598 10596 10593 10591 10588 10586 10583 10580 10577 10574 10571 10568 10565 10562 10559 10556 10553 10549 10546 10543 10539 10536 10532 10528 10524 10520 10516 10512 10508 10504 10499 10494 10490 10485 10480 10476 10471 10465 10460 10455 10449 10442 10435 10428 10423 10417 10411 10405 10399 10391 10384 10378 10371 10364 10356 10349 10345 10338 10330 10322 10314 10307 10299 10289 10279
10639 10638 10636 10634 10633 10631 10629 10627 10626 10624 10622 10620 10618 10616 10614 10612 10610 10608 10606 10603 10601 10599 10597 10594 10592 10589 10587 10584 10581 10579 10576 10573 10570 10567 10564 10561 10557 10554 10551 10548 10544 10541 10537 10533 10530 10526 10522 10518 10514 10510 10505 10501 10496 10492 10487 10482 10478 10473 10468 10463 10458 10453 10447 10441 10433 10426 10420 10414 10408 10402 10396 10388 10381 10374 10367 10360 10352 10344 10339 10334 10327 10318 10310 10302 10294 10286 10277
10637 10636 10634 10633 10631 10629 10628 10626 10624 10623 10621 10619 10617 10615 10613 10611 10609 10607 10604 10602 10600 10598 10595 10593 10591 10588 10585 10582 10580 10577 10574 10571 10568 10565 10562 10559 10556 10553 10549 10546 10542 10539 10535 10531 10527 10524 10520 10515 10511 10507 10503 10498 10493 10489 10484 10480 10475 10470 10465 10461 10456 10451 10445 10439 10432 10424 10418 10412 10406 10400 10394 10387 10379 10372 10364 10356 10349 10340 10333 10329 10323 10314 10306 10298 10289 10282 10274
10636 10634 10633 10631 10629 10628 10626 10625 10624 10622 10620 10618 10616 10614 10612 10610 10608 10606 10603 10601 10599 10597 10594 10592 10589 10587 10584 10581 10578 10576 10573 10570 10567 10564 10561 10558 10554 10551 10548 10544 10541 10537 10533 10529 10525 10521 10517 10513 10508 10504 10500 10495 10491 10486 10482 10477 10472 10468 10463 10458 10453 10448 10443 10437 10430 10422 10415 10409 10403 10396 10392 10385 10377 10369 10362 10354 10346 10337 10327 10322 10318 10310 10301 10294 10285 10277 10269
10634 10633 10631 10630 10628 10627 10625 10624 10623 10621 10619 10617 10615 10613 10611 10609 10606 10604 10602 10600 10598 10596 10593 10591 10588 10585 10583 10580 10577 10574 10571 10568 10565 10562 10559 10556 10553 10549 10546 10543 10539 10535 10531 10527 10523 10519 10515 10511 10506 10502 10497 10493 10488 10484 10479 10474 10470 10465 10460 10455 10450 10445 10440 10434 10429 10422 10414 10407 10400 10392 10387 10382 10376 10368 10360 10352 10344 10334 10322 10315 10312 10305 10296 10288 10281 10272 10265
10633 10631 10630 10628 10627 10626 10624 10623 10621 10620 10618 10616 10614 10612 10610 10607 10605 10603 10601 10599 10597 10594 10592 10589 10587 10584 10581 10579 10576 10573 10570 10567 10564 10561 10558 10554 10551 10548 10544 10541 10537 10534 10530 10526 10522 10518 10513 10509 10504 10499 10495 10490 10486 10481 10477 10472 10467 10462 10456 10451 10447 10442 10437 10432 10427 10420 10412 10406 10400 10392 10383 10377 10372 10365 10357 10349 10341 10333 10320 10309 10304 10300 10292 10284 10277 10269 10261
10631 10630 10628 10627 10626 10625 10623 10622 10620 10618 10616 10614 10612 10610 10609 10606 10604 10602 10600 10598 10596 10593 10591 10589 10586 10583 10580 10577 10575 10572 10569 10565 10562 10559 10556 10553 10549 10546 10542 10539 10536 10532 10528 10524 10520 10516 10511 10506 10502 10497 10492 10487 10482 10478 10473 10468 10463 10458 10453 10448 10444 10439 10434 10428 10423 10418 10411 10404 10397 10390 10381 10373 10367 10360 10353 10346 10339 10332 10321 10308 10298 10293 10287 10279 10272 10264 10256
10630 10628 10627 10626 10625 10624 10622 10621 10619 10617 10615 10613 10611 10609 10608 10606 10603 10602 10600 10597 10595 10593 10590 10587 10585 10582 10579 10576 10573 10570 10567 10564 10561 10558 10555 10551 10548 10544 10541 10537 10534 10530 10526 10523 10518 10514 10510 10505 10500 10495 10490 10485 10480 10475 10470 10465 10461 10456 10451 10446 10441 10436 10431 10426 10420 10415 10409 10402 10396 10389 10382 10374 10367 10360 10352 10345 10337 10330 10322 10310 10298 10289 10282 10275 10267 10259 10251
10628 10627 10626 10625 10624 10623 10621 10620 10618 10616 10614 10612 10610 10609 10607 10605 10603 10601 10599 10596 10594 10592 10589 10586 10584 10581 10578 10575 10572 10569 10566 10563 10560 10556 10553 10549 10546 10542 10539 10535 10532 10528 10525 10521 10516 10512 10508 10504 10499 10494 10489 10485 10480 10475 10469 10463 10458 10453 10448 10443 10438 10433 10428 10422 10417 10411 10405 10399 10393 10388 10381 10374 10366 10358 10350 10342 10334 10327 10319 10310 10299 10288 10279 10271 10263 10255 10247
10627 10626 10625 10624 10623 10622 10620 10619 10617 10615 10613 10611 10610 10608 10606 10604 10602 10600 10597 10595 10593 10590 10588 10585 10583 10580 10577 10574 10571 10568 10565 10561 10558 10555 10551 10548 10544 10541 10537 10533 10530 10526 10523 10519 10515 10510 10505 10501 10497 10493 10488 10483 10478 10473 10468 10462 10456 10451 10446 10441 10435 10431 10425 10418 10412 10407 10400 10393 10385 10379 10374 10367 10360 10352 10345 10337 10329 10322 10315 10307 10298 10288 10278 10269 10260 10251 10243
10626 10625 10624 10623 10622 10621 10619 10618 10616 10614 10612 10611 10609 10607 10605 10603 10601 10599 10596 10594 10592 10589 10587 10584 10582 10579 10576 10573 10570 10567 10564 10560 10557 10553 10549 10546 10542 10538 10535 10531 10527 10523 10520 10516 10512 10508 10503 10498 10494 10489 10484 10479 10474 10471 10466 10461 10455 10449 10444 10439 10432 10426 10421 10415 10408 10402 10396 10390 10382 10373 10365 10360 10354 10347 10340 10332 10323 10315 10307 10300 10293 10285 10275 10265 10257 10248 10239
10624 10623 10622 10622 10621 10619 10618 10616 10615 10613 10611 10610 10608 10606 10604 10602 10600 10598 10595 10593 10591 10588 10586 10583 10581 10578 10575 10573 10569 10566 10563 10559 10555 10552 10548 10544 10540 10536 10533 10529 10525 10521 10517 10513 10509 10505 10501 10496 10491 10486 10481 10476 10471 10466 10462 10459 10453 10447 10441 10436 10429 10422 10416 10411 10405 10398 10391 10386 10380 10372 10362 10354 10348 10341 10332 10324 10317 10308 10299 10290 10283 10277 10269 10259 10250 10242 10233
10623 10622 10621 10620 10619 10618 10617 10615 10614 10612 10610 10608 10606 10605 10603 10601 10599 10597 10595 10592 10590 10588 10585 10582 10580 10577 10574 10571 10568 10565 10561 10558 10554 10550 10546 10542 10538 10535 10531 10526 10522 10519 10515 10510 10506 10502 10498 10494 10489 10484 10479 10474 10469 10462 10457 10453 10449 10444 10437 10431 10425 10418 10411 10405 10399 10393 10386 10379 10374 10370 10362 10351 10341 10334 10326 10317 10309 10301 10293 10284 10275 10267 10260 10251 10242 10234 10225
10622 10621 10620 10619 10618 10617 10616 10614 10612 10611 10609 10607 10605 10603 10601 10600 10598 10596 10594 10591 10589 10587 10584 10581 10579 10576 10573 10570 10566 10563 10559 10556 10552 10549 10545 10541 10537 10533 10528 10524 10520 10516 10512 10507 10503 10499 10495 10491 10487 10482 10477 10473 10468 10462 10454 10447 10443 10439 10433 10426 10419 10413 10405 10399 10393 10386 10379 10371 10363 10358 10353 10344 10333 10324 10318 10310 10303 10295 10287 10278 10269 10260 10252 10243 10234 10225 10217
10620 10619 10618 10617 10617 10616 10614 10613 10611 10609 10608 10606 10604 10602 10600 10599 10597 10595 10592 10590 10588 10585 10583 10580 10577 10574 10571 10568 10565 10561 10557 10554 10550 10547 10543 10539 10535 10531 10527 10523 10519 10514 10510 10505 10501 10496 10492 10487 10483 10479 10474 10469 10464 10460 10454 10447 10439 10434 10429 10422 10415 10408 10400 10393 10386 10377 10369 10362 10352 10343 10340 10336 10328 10318 10309 10301 10295 10289 10281 10273 10264 10255 10246 10237 10228 10218 10210
10619 10618 10617 10616 10615 10614 10613 10611 10610 10608 10606 10604 10602 10600 10599 10597 10596 10594 10591 10589 10586 10584 10582 10579 10576 10573 10570 10566 10563 10559 10556 10552 10548 10545 10541 10537 10533 10529 10525 10521 10516 10512 10508 10503 10498 10493 10488 10484 10479 10475 10470 10465 10460 10455 10450 10445 10438 10431 10425 10418 10412 10405 10397 10388 10381 10373 10363 10356 10348 10340 10334 10330 10324 10316 10308 10298 10289 10282 10275 10268 10259 10250 10241 10232 10223 10213 10204
10617 10616 10615 10614 10614 10612 10611 10610 10608 10606 10604 10602 10600 10599 10597 10596 10594 10592 10590 10587 10585 10582 10580 10577 10574 10571 10567 10564 10561 10557 10554 10550 10547 10543 10539 10535 10531 10527 10523 10518 10514 10509 10505 10500 10495 10490 10485 10480 10475 10470 10466 10461 10457 10451 10446 10441 10435 10428 10422 10416 10409 10403 10395 10386 10380 10376 10368 10358 10349 10339 10331 10325 10319 10311 10304 10296 10286 10277 10270 10262 10253 10244 10234 10225 10216 10207 10198
10616 10615 10614 10613 10612 10611 10610 10608 10606 10604 10602 10601 10599 10598 10596 10594 10592 10590 10588 10585 10583 10580 10577 10575 10572 10568 10565 10562 10558 10555 10551 10548 10544 10541 10537 10533 10529 10524 10520 10516 10511 10507 10502 10497 10493 10488 10482 10477 10471 10466 10461 10456 10451 10446 10441 10437 10431 10424 10418 10413 10406 10400 10394 10385 10376 10371 10366 10359 10350 10338 10327 10320 10314 10307 10299 10290 10281 10271 10263 10255 10246 10237 10228 10219 10210 10201 10192
10614 10613 10612 10611 10610 10609 10608 10606 10604 10603 10601 10599 10598 10596 10594 10592 10590 10588 10586 10583 10581 10578 10575 10572 10569 10566 10563 10560 10556 10553 10549 10545 10542 10538 10534 10530 10526 10521 10517 10513 10508 10504 10499 10494 10489 10484 10479 10474 10468 10462 10456 10451 10445 10439 10434 10430 10426 10420 10412 10407 10402 10396 10391 10385 10375 10365 10359 10353 10348 10340 10327 10314 10307 10301 10294 10286 10277 10267 10258 10250 10241 10232 10223 10214 10204 10195 10186
10612 10611 10610 10609 10608 10607 10606 10604 10603 10601 10599 10598 10596 10594 10592 10590 10588 10586 10583 10581 10578 10575 10572 10569 10566 10563 10560 10557 10553 10550 10547 10543 10539 10535 10530 10526 10522 10517 10513 10509 10504 10500 10495 10490 10486 10480 10475 10470 10465 10459 10453 10447 10441 10435 10428 10422 10419 10415 10407 10401 10396 10390 10385 10380 10373 10364 10356 10349 10343 10339 10331 10318 10306 10297 10289 10282 10274 10264 10255 10246 10236 10227 10218 10209 10200 10190 10180
10610 10609 10608 10607 10606 10605 10604 10602 10601 10599 10597 10596 10594 10592 10590 10588 10585 10583 10581 10578 10575 10572 10569 10566 10564 10560 10557 10554 10551 10547 10543 10540 10536 10531 10527 10523 10518 10513 10509 10505 10500 10496 10491 10486 10481 10477 10471 10466 10461 10456 10450 10443 10437 10431 10424 10416 10411 10408 10402 10395 10389 10384 10379 10374 10369 10361 10353 10344 10335 10329 10325 10317 10307 10296 10287 10278 10269 10260 10250 10241 10231 10222 10213 10204 10194 10185 10175
10608 10607 10606 10605 10604 10603 10602 10600 10599 10597 10595 10593 10592 10589 10587 10585 10583 10580 10578 10575 10572 10570 10567 10564 10561 10558 10555 10551 10548 10544 10540 10536 10532 10528 10523 10519 10515 10510 10505 10500 10496 10491 10487 10482 10477 10472 10467 10462 10458 10452 10446 10440 10433 10427 10421 10413 10405 10401 10397 10390 10382 10375 10370 10366 10361 10354 10345 10337 10328 10319 10313 10307 10299 10290 10281 10273 10264 10254 10244 10235 10226 10216 10207 10198 10188 10178 10169
10606 10605 10604 10603 10602 10600 10599 10598 10596 10595 10593 10591 10589 10587 10585 10582 10580 10578 10575 10572 10570 10567 10564 10561 10558 10555 10552 10548 10545 10541 10537 10532 10528 10524 10519 10515 10511 10506 10501 10496 10491 10487 10482 10477 10472 10468 10462 10457 10453 10448 10442 10436 10430 10424 10419 10412 10402 10395 10391 10385 10377 10369 10362 10356 10352 10347 10340 10332 10323 10313 10305 10300 10293 10283 10274 10266 10258 10249 10238 10229 10219 10209 10200 10191 10181 10172 10162
10603 10602 10601 10600 10599 10598 10596 10595 10594 10592 10590 10588 10586 10584 10582 10580 10577 10575 10572 10569 10566 10563 10561 10557 10555 10552 10548 10545 10541 10538 10534 10530 10525 10521 10516 10511 10507 10503 10498 10493 10487 10482 10478 10473 10467 10462 10458 10453 10448 10442 10437 10431 10425 10419 10415 10410 10402 10393 10386 10381 10374 10366 10357 10349 10342 10338 10334 10328 10319 10308 10298 10291 10286 10278 10268 10258 10250 10241 10231 10221 10212 10202 10192 10183 10174 10164 10154
10601 10600 10599 10597 10596 10595 10594 10592 10591 10589 10587 10586 10583 10581 10579 10576 10574 10571 10568 10566 10563 10560 10557 10554 10551 10548 10544 10541 10537 10534 10530 10526 10522 10518 10513 10508 10503 10498 10493 10489 10483 10478 10474 10469 10464 10458 10453 10448 10443 10438 10433 10427 10420 10413 10407 10404 10400 10392 10384 10377 10370 10361 10354 10345 10336 10329 10325 10322 10317 10308 10295 10284 10277 10271 10262 10252 10243 10233 10224 10215 10205 10195 10185 10176 10167 10157 10147
10598 10597 10596 10595 10594 10592 10591 10589 10588 10586 10584 10583 10581 10578 10576 10573 10571 10568 10565 10562 10560 10557 10554 10550 10547 10545 10541 10537 10534 10530 10526 10522 10518 10514 10509 10504 10499 10493 10487 10483 10478 10473 10468 10464 10460 10454 10448 10442 10437 10433 10428 10422 10416 10409 10401 10396 10392 10387 10381 10374 10367 10358 10350 10342 10334 10325 10316 10311 10307 10303 10294 10283 10272 10264 10256 10247 10237 10228 10218 10209 10199 10189 10179 10169 10160 10151 10141
10595 10594 10593 10592 10591 10589 10588 10586 10585 10583 10581 10579 10577 10575 10573 10570 10567 10564 10562 10559 10556 10553 10550 10547 10543 10540 10537 10534 10530 10526 10522 10517 10513 10508 10504 10499 10494 10489 10482 10477 10472 10467 10462 10458 10454 10449 10443 10437 10432 10427 10422 10417 10412 10405 10397 10390 10385 10381 10376 10370 10364 10357 10348 10340 10330 10320 10311 10303 10296 10291 10286 10278 10268 10258 10249 10240 10231 10222 10212 10202 10193 10183 10172 10163 10154 10145 10136
10592 10591 10590 10589 10588 10586 10585 10583 10582 10580 10578 10576 10574 10572 10569 10567 10564 10561 10558 10555 10552 10549 10545 10543 10539 10535 10532 10528 10525 10521 10517 10513 10509 10504 10500 10495 10490 10485 10480 10474 10468 10462 10457 10452 10448 10443 10437 10432 10427 10422 10416 10411 10406 10400 10394 10386 10380 10375 10370 10364 10358 10352 10346 10338 10329 10317 10307 10299 10292 10284 10277 10269 10261 10252 10243 10233 10225 10216 10205 10195 10186 10176 10166 10156 10147 10139 10129
10589 10588 10587 10586 10585 10583 10582 10580 10579 10577 10575 10573 10570 10568 10566 10563 10560 10557 10554 10551 10548 10545 10541 10538 10535 10531 10528 10524 10520 10516 10512 10509 10504 10500 10496 10492 10487 10482 10477 10472 10466 10460 10453 10447 10443 10439 10433 10427 10421 10417 10412 10406 10400 10395 10389 10383 10376 10370 10363 10357 10351 10345 10340 10335 10329 10319 10307 10296 10288 10281 10273 10263 10255 10246 10237 10226 10217 10208 10198 10188 10179 10170 10160 10150 10141 10132 10123
10586 10585 10584 10583 10581 10580 10578 10577 10575 10573 10571 10569 10567 10564 10562 10560 10557 10554 10550 10547 10545 10542 10538 10534 10530 10527 10524 10521 10517 10513 10509 10505 10500 10495 10491 10486 10482 10477 10473 10469 10464 10458 10450 10444 10440 10435 10429 10423 10417 10412 10407 10402 10395 10389 10382 10376 10371 10365 10358 10351 10344 10337 10331 10326 10322 10317 10307 10294 10283 10275 10267 10257 10247 10239 10230 10220 10209 10200 10191 10181 10171 10163 10154 10145 10135 10126 10116
10582 10581 10580 10579 10578 10576 10575 10573 10571 10569 10567 10565 10563 10560 10558 10556 10553 10549 10546 10542 10539 10536 10533 10529 10526 10522 10519 10515 10512 10509 10505 10500 10496 10491 10487 10482 10478 10473 10469 10465 10462 10456 10449 10442 10438 10433 10426 10420 10413 10408 10402 10397 10390 10383 10376 10369 10363 10358 10353 10347 10340 10332 10324 10316 10310 10307 10301 10291 10281 10271 10263 10254 10243 10233 10223 10214 10203 10193 10184 10175 10165 10156 10147 10138 10129 10119 10110
10579 10578 10577 10575 10574 10573 10571 10569 10567 10565 10563 10561 10559 10556 10554 10551 10548 10545 10542 10538 10534 10531 10528 10524 10520 10517 10513 10509 10506 10502 10499 10495 10491 10486 10481 10477 10473 10469 10464 10460 10456 10452 10445 10439 10434 10430 10424 10416 10410 10404 10398 10391 10385 10379 10372 10364 10357 10350 10345 10340 10334 10326 10318 10309 10300 10294 10288 10281 10273 10264 10257 10249 10240 10229 10218 10208 10198 10187 10177 10168 10158 10149 10140 10131 10122 10113 10103
10575 10574 10573 10571 10570 10568 10567 10565 10563 10561 10559 10557 10554 10552 10549 10546 10544 10540 10537 10533 10530 10526 10523 10519 10515 10512 10508 10504 10500 10496 10492 10489 10485 10480 10474 10469 10466 10463 10458 10453 10449 10445 10439 10433 10428 10424 10419 10413 10406 10400 10395 10388 10381 10374 10367 10360 10352 10344 10337 10331 10325 10318 10310 10301 10291 10283 10276 10267 10258 10250 10242 10234 10227 10220 10211 10201 10192 10181 10170 10161 10151 10142 10133 10124 10116 10106 10097
10572 10570 10569 10567 10566 10564 10562 10560 10558 10557 10554 10552 10550 10547 10544 10542 10539 10536 10532 10528 10524 10520 10518 10514 10510 10506 10503 10499 10495 10490 10486 10483 10480 10475 10470 10464 10459 10455 10450 10445 10441 10437 10432 10427 10422 10417 10413 10407 10400 10395 10390 10384 10376 10369 10362 10355 10347 10338 10329 10323 10317 10310 10302 10293 10283 10275 10267 10259 10249 10239 10231 10222 10214 10206 10199 10191 10182 10173 10164 10154 10144 10135 10126 10118 10109 10100 10091
10568 10566 10565 10563 10561 10560 10558 10556 10554 10552 10550 10547 10545 10542 10539 10536 10533 10531 10528 10524 10520 10515 10512 10509 10506 10501 10497 10494 10490 10485 10481 10477 10474 10471 10466 10460 10455 10451 10445 10440 10435 10431 10426 10421 10415 10410 10406 10401 10394 10388 10383 10377 10371 10364 10357 10350 10343 10334 10324 10316 10310 10304 10296 10288 10278 10267 10259 10252 10244 10234 10224 10215 10205 10197 10189 10181 10173 10164 10156 10147 10138 10128 10120 10111 10103 10094 10085
10564 10562 10561 10559 10557 10555 10553 10551 10549 10547 10545 10542 10540 10536 10533 10531 10528 10525 10522 10519 10515 10511 10507 10504 10501 10497 10493 10489 10485 10481 10476 10472 10468 10465 10461 10456 10451 10447 10442 10436 10430 10425 10420 10414 10408 10402 10398 10395 10389 10381 10375 10370 10363 10357 10351 10345 10338 10329 10319 10310 10304 10297 10289 10281 10273 10263 10253 10244 10236 10227 10218 10208 10199 10190 10182 10175 10166 10157 10148 10139 10131 10122 10113 10105 10097 10088 10078
10559 10558 10556 10554 10552 10551 10549 10546 10544 10542 10540 10537 10535 10531 10528 10524 10522 10519 10515 10512 10509 10505 10502 10498 10495 10492 10488 10485 10481 10476 10471 10466 10461 10458 10455 10451 10446 10441 10437 10431 10425 10420 10414 10408 10401 10395 10390 10387 10382 10376 10369 10363 10356 10349 10343 10337 10331 10323 10313 10302 10294 10288 10280 10272 10264 10255 10245 10235 10227 10219 10210 10202 10193 10183 10175 10168 10160 10151 10141 10132 10124 10115 10107 10098 10089 10081 10072
10555 10553 10551 10549 10548 10546 10544 10541 10538 10537 10534 10532 10529 10526 10523 10519 10516 10512 10509 10505 10502 10498 10495 10492 10489 10486 10482 10480 10476 10471 10465 10461 10456 10452 10448 10445 10440 10434 10429 10424 10418 10413 10408 10402 10395 10388 10383 10379 10375 10369 10363 10357 10349 10342 10335 10327 10321 10316 10308 10298 10288 10279 10272 10263 10254 10246 10237 10228 10219 10211 10203 10195 10186 10177 10168 10160 10152 10144 10135 10125 10117 10108 10100 10091 10082 10074 10065
10550 10548 10547 10545 10542 10541 10539 10536 10533 10531 10529 10526 10523 10521 10517 10514 10510 10507 10503 10500 10496 10492 10489 10485 10483 10480 10476 10473 10470 10465 10458 10454 10451 10446 10441 10438 10433 10428 10422 10416 10409 10405 10401 10395 10388 10381 10376 10371 10366 10360 10354 10347 10340 10333 10325 10317 10310 10304 10299 10291 10281 10272 10264 10255 10246 10238 10230 10221 10213 10205 10197 10188 10180 10171 10161 10152 10144 10137 10128 10119 10110 10101 10093 10084 10075 10066 10057
10545 10543 10542 10540 10537 10535 10534 10531 10528 10525 10523 10520 10518 10514 10511 10507 10504 10501 10497 10494 10490 10487 10483 10480 10477 10474 10470 10466 10463 10458 10451 10447 10444 10439 10433 10429 10426 10422 10416 10409 10402 10396 10392 10387 10380 10373 10368 10363 10357 10351 10344 10337 10331 10324 10316 10308 10300 10293 10287 10280 10272 10264 10256 10247 10238 10230 10222 10213 10205 10197 10189 10181 10172 10164 10155 10146 10137 10129 10121 10112 10103 10094 10085 10076 10068 10059 10050
10539 10537 10536 10534 10531 10529 10528 10526 10523 10519 10517 10514 10511 10508 10504 10501 10497 10494 10490 10487 10484 10481 10478 10474 10471 10469 10465 10460 10456 10451 10444 10440 10437 10432 10425 10420 10417 10414 10408 10402 10395 10388 10383 10378 10371 10364 10359 10354 10348 10341 10334 10327 10322 10316 10308 10300 10291 10284 10277 10269 10261 10254 10246 10238 10229 10221 10214 10206 10198 10189 10181 10172 10164 10156 10148 10139 10130 10122 10114 10105 10096 10087 10078 10069 10060 10051 10042
10534 10532 10530 10529 10526 10524 10522 10520 10516 10513 10510 10508 10505 10501 10497 10494 10491 10487 10484 10481 10477 10474 10471 10467 10464 10462 10458 10453 10449 10444 10438 10433 10430 10424 10417 10412 10409 10406 10401 10395 10388 10381 10374 10368 10362 10356 10349 10344 10339 10333 10326 10318 10312 10306 10298 10290 10282 10275 10268 10260 10252 10245 10238 10230 10221 10213 10206 10198 10190 10181 10173 10164 10156 10148 10140 10132 10123 10114 10106 10097 10088 10080 10070 10061 10051 10042 10033
10529 10526 10524 10522 10521 10519 10517 10514 10511 10506 10502 10500 10499 10495 10491 10487 10484 10480 10477 10474 10470 10467 10463 10460 10457 10454 10450 10445 10441 10436 10431 10427 10423 10417 10410 10405 10402 10398 10392 10386 10381 10374 10367 10359 10352 10346 10340 10334 10329 10324 10317 10308 10301 10295 10288 10280 10272 10264 10257 10250 10243 10236 10229 10222 10213 10204 10196 10189 10181 10172 10164 10156 10148 10140 10132 10124 10115 10107 10099 10090 10081 10072 10063 10053 10043 10034 10026
10523 10521 10518 10516 10514 10513 10510 10508 10506 10501 10496 10493 10491 10488 10484 10481 10477 10473 10470 10467 10463 10459 10455 10452 10449 10445 10441 10436 10432 10428 10425 10421 10416 10410 10403 10398 10394 10390 10385 10379 10373 10366 10359 10351 10343 10336 10329 10323 10318 10314 10309 10301 10293 10286 10278 10270 10262 10255 10248 10241 10234 10227 10219 10212 10204 10195 10187 10179 10171 10163 10155 10148 10140 10132 10124 10117 10108 10099 10091 10083 10074 10065 10055 10045 10035 10026 10018
10517 10515 10512 10509 10508 10506 10504 10502 10499 10496 10491 10487 10483 10480 10477 10474 10470 10466 10463 10460 10456 10452 10448 10444 10441 10437 10432 10428 10424 10420 10417 10415 10410 10403 10396 10390 10386 10382 10377 10372 10365 10358 10351 10344 10335 10327 10319 10312 10306 10303 10299 10293 10286 10279 10270 10261 10253 10246 10240 10233 10226 10218 10210 10202 10195 10187 10178 10170 10163 10156 10148 10140 10132 10124 10116 10109 10100 10092 10084 10075 10066 10057 10047 10037 10027 10018 10010
10510 10508 10506 10503 10501 10500 10498 10496 10493 10490 10486 10482 10478 10474 10471 10467 10463 10460 10456 10453 10450 10445 10441 10437 10433 10428 10423 10418 10415 10411 10408 10405 10402 10396 10388 10382 10377 10372 10369 10364 10356 10349 10342 10336 10329 10320 10312 10304 10298 10292 10287 10281 10276 10270 10263 10254 10245 10237 10231 10224 10217 10210 10203 10195 10188 10180 10172 10164 10156 10149 10141 10133 10124 10116 10109 10101 10093 10085 10076 10067 10058 10049 10040 10030 10020 10011 10002